Location: Cz?stochówka
(50.8142°N, 19.0915°E)
Time: 06:19:27
(UTC+00:00)

Cosmos 2297 Rocket - Pass Details

Date: 13 January 2026
Orbit: 837 x 843 km, 71.0° (Epoch: 10 February)

Event Time Altitude Azimuth Distance (km) Brightness Sun altitude
Exits shadow 05:47:27 - 332° (NNW) 3,151 4.7 -8.2°
Reaches altitude 10° 05:50:34 10° 356° (N) 2,476 4.4 -7.8°
Maximum altitude 05:53:03 13° 22° (NNE) 2,277 4.4 -7.4°
Drops below altitude 10° 05:55:32 10° 48° (NE) 2,473 4.9 -7.1°
Sets 05:59:34 0° 76° (ENE) 3,405 6.2 -6.5°
